Tracking 23757 objects as of 25-Oct-2021
HD Live streaming from Space Station
objects crossing your sky now

CZ-2D DEB

Track CZ-2D DEB now!
10-day predictions


NORAD ID: 43426
Int'l Code: 2015-078B
Perigee: 495.8 km
Apogee: 771.7 km
Inclination: 97.4 °
Period: 97.2 minutes
Semi major axis: 7004 km
RCS: Unknown
Launch date: December 17, 2015
Source: People's Republic of China (PRC)
Launch site: Jiuquan Satellite Launch Center, China (JSC)

Note: This is SATELLITE DEBRIS
aabbcc
Your satellite tracking list
Your tracking list is empty




NASA's NSSDC Master Catalog

Two Line Element Set (TLE):
1 43426U 15078B   21297.85440734  .00003036  00000-0  28677-3 0  9991
2 43426  97.3505 162.7233 0196890  15.1083 345.5897 14.80859270313276
Source of the keplerian elements: AFSPC